This is the latest recevied weather packets stored in our database for station/object WC4PEM-13. If no packets are shown the sender has not sent any weather packets the latest 10 day(s).
| Time | Temp. | Humidity | Pressure | Rain* | Wind** | Luminosity | Snow |
|---|---|---|---|---|---|---|---|
| 1777759355 | 24.44° C | 76% | 1011.2 hPa | 0 mm | - | - | - |
| 1777759055 | 24.44° C | 75% | 1011.2 hPa | 0 mm | - | - | - |
| 1777759000 | 24.44° C | 75% | 1011 hPa | 0 mm | - | - | - |
| 1777758755 | 24.44° C | 75% | 1011 hPa | 0 mm | - | - | - |
| 1777758455 | 24.44° C | 74% | 1011 hPa | 0 mm | - | - | - |
| 1777758155 | 25° C | 73% | 1011 hPa | 0 mm | - | - | - |
| 1777757855 | 25° C | 73% | 1010.8 hPa | 0 mm | - | - | - |
| 1777757555 | 25° C | 72% | 1010.8 hPa | 0 mm | - | - | - |
| 1777757255 | 25° C | 71% | 1010.8 hPa | 0 mm | - | - | - |
| 1777756955 | 25.56° C | 70% | 1010.8 hPa | 0 mm | - | - | - |
| 1777756656 | 25.56° C | 69% | 1010.8 hPa | 0 mm | - | - | - |
| 1777756355 | 26.11° C | 68% | 1010.8 hPa | 0 mm | - | - | - |
| 1777756055 | 26.67° C | 66% | 1010.5 hPa | 0 mm | - | - | - |
| 1777755756 | 27.78° C | 66% | 1010.6 hPa | 0 mm | - | - | - |
| 1777755456 | 28.33° C | 68% | 1010.5 hPa | 0 mm | - | - | - |
| 1777755156 | 28.33° C | 69% | 1010.4 hPa | 0 mm | - | - | - |
| 1777754856 | 28.33° C | 69% | 1010.4 hPa | 0 mm | - | - | - |
| 1777754556 | 28.33° C | 68% | 1010.3 hPa | 0 mm | - | - | - |
| 1777754256 | 28.89° C | 68% | 1010.4 hPa | 0 mm | - | - | - |
| 1777753956 | 28.89° C | 67% | 1010.3 hPa | 0 mm | - | - | - |
| 1777753656 | 28.89° C | 66% | 1010.5 hPa | 0 mm | - | - | - |
| 1777753356 | 28.89° C | 66% | 1010.4 hPa | 0 mm | - | - | - |
| 1777753056 | 29.44° C | 65% | 1010.4 hPa | 0 mm | - | - | - |
| 1777752756 | 29.44° C | 65% | 1010.3 hPa | 0 mm | - | - | - |
| 1777752456 | 29.44° C | 64% | 1010.1 hPa | 0 mm | - | - | - |
* Rain latest hour (hover to see other rain measurements)
** Current wind speed in m/s (hover to see current wind gust speed)